When you browse on this site, cookies collect data to enhance your experience and personalize the content and advertising you see.
Visit our Privacy Policy to learn more. By continuing to use the site, you agree to this use of cookies and data.
  • Em Portugal
  • Lista de países
  • Para 7 dias
  • Temperatura da água
  • Mapas de satélite
  • Mapa do tempo
  • Widgets de tempo
  • user-avatar
    Iniciar Sessão

    Previsão horária em Biskupie

    Hoje, 26 Junho, Quarta-feira

    Tempo Temperatura Precipitação Vento Pressão Humidade
    00:00 +25°C° 0 mm 3 m/s 758 mmHg 84%
    01:00 +24°C° 0 mm 2 m/s 757 mmHg 83%
    02:00 +24°C° 0 mm 3 m/s 757 mmHg 84%
    03:00 +24°C° 0 mm 3 m/s 757 mmHg 84%
    04:00 +24°C° 0 mm 3 m/s 757 mmHg 85%
    05:00 +25°C° 0 mm 3 m/s 757 mmHg 81%
    06:00 +26°C° 0 mm 3 m/s 757 mmHg 77%
    07:00 +28°C° 0 mm 4 m/s 757 mmHg 73%
    08:00 +29°C° 0 mm 4 m/s 756 mmHg 69%
    09:00 +30°C° 0 mm 4 m/s 756 mmHg 64%
    10:00 +33°C° 0 mm 4 m/s 756 mmHg 60%
    11:00 +33°C° 0 mm 4 m/s 756 mmHg 58%
    12:00 +34°C° 0 mm 4 m/s 755 mmHg 56%
    13:00 +35°C° 0 mm 4 m/s 755 mmHg 54%
    14:00 +35°C° 0 mm 4 m/s 755 mmHg 53%
    15:00 +35°C° 0 mm 4 m/s 754 mmHg 53%
    16:00 +35°C° 0 mm 4 m/s 754 mmHg 52%
    17:00 +34°C° 0 mm 4 m/s 753 mmHg 57%
    18:00 +33°C° 0 mm 4 m/s 753 mmHg 62%
    19:00 +30°C° 0 mm 4 m/s 753 mmHg 66%
    20:00 +29°C° 0.3 mm 4 m/s 753 mmHg 71%
    21:00 +27°C° 0.3 mm 4 m/s 753 mmHg 76%
    22:00 +26°C° 0.3 mm 4 m/s 753 mmHg 80%
    23:00 +25°C° 0.3 mm 4 m/s 753 mmHg 84%

    Amanhã, 27 Junho, Quinta-feira

    Tempo Temperatura Precipitação Vento Pressão Humidade
    00:00 +22°C° 0.3 mm 4 m/s 753 mmHg 88%
    01:00 +21°C° 0.3 mm 5 m/s 753 mmHg 92%
    02:00 +20°C° 0 mm 5 m/s 753 mmHg 92%
    03:00 +19°C° 0 mm 4 m/s 754 mmHg 93%
    04:00 +19°C° 0 mm 4 m/s 754 mmHg 93%
    05:00 +17°C° 0 mm 5 m/s 754 mmHg 88%
    06:00 +17°C° 0 mm 6 m/s 754 mmHg 83%
    07:00 +17°C° 0 mm 7 m/s 754 mmHg 78%
    08:00 +17°C° 0 mm 7 m/s 754 mmHg 73%
    09:00 +18°C° 0 mm 7 m/s 754 mmHg 67%
    10:00 +20°C° 0 mm 7 m/s 755 mmHg 62%
    11:00 +21°C° 0 mm 7 m/s 755 mmHg 61%
    12:00 +21°C° 0 mm 7 m/s 755 mmHg 60%
    13:00 +22°C° 0 mm 7 m/s 754 mmHg 59%
    14:00 +22°C° 0 mm 7 m/s 754 mmHg 60%
    15:00 +22°C° 0 mm 7 m/s 754 mmHg 62%
    16:00 +22°C° 0 mm 7 m/s 754 mmHg 64%
    17:00 +21°C° 0 mm 7 m/s 754 mmHg 67%
    18:00 +20°C° 0 mm 6 m/s 754 mmHg 71%
    19:00 +19°C° 0 mm 5 m/s 754 mmHg 75%
    20:00 +17°C° 0 mm 5 m/s 755 mmHg 80%
    21:00 +17°C° 0 mm 4 m/s 755 mmHg 85%
    22:00 +16°C° 0 mm 3 m/s 756 mmHg 90%
    23:00 +14°C° 0 mm 3 m/s 756 mmHg 92%

    Depois de amanhã, 28 Junho, Sexta-feira

    Tempo Temperatura Precipitação Vento Pressão Humidade
    00:00 +15°C° 0 mm 2 m/s 756 mmHg 94%
    01:00 +14°C° 0 mm 2 m/s 756 mmHg 96%
    02:00 +14°C° 0 mm 2 m/s 756 mmHg 96%
    03:00 +14°C° 0 mm 1 m/s 756 mmHg 96%
    04:00 +14°C° 0 mm 1 m/s 756 mmHg 96%
    05:00 +15°C° 0 mm 2 m/s 756 mmHg 89%
    06:00 +17°C° 0 mm 2 m/s 756 mmHg 83%
    07:00 +18°C° 0 mm 2 m/s 756 mmHg 76%
    08:00 +20°C° 0.1 mm 3 m/s 756 mmHg 70%
    09:00 +21°C° 0.1 mm 3 m/s 756 mmHg 63%
    10:00 +22°C° 0.1 mm 4 m/s 756 mmHg 57%
    11:00 +23°C° 0.1 mm 4 m/s 756 mmHg 55%
    12:00 +23°C° 0.1 mm 5 m/s 756 mmHg 52%
    13:00 +25°C° 0.1 mm 5 m/s 756 mmHg 50%
    14:00 +25°C° 0 mm 5 m/s 756 mmHg 50%
    15:00 +23°C° 0 mm 5 m/s 756 mmHg 49%
    16:00 +23°C° 0 mm 5 m/s 756 mmHg 49%
    17:00 +22°C° 0 mm 5 m/s 756 mmHg 54%
    18:00 +20°C° 0 mm 4 m/s 756 mmHg 59%
    19:00 +19°C° 0 mm 3 m/s 756 mmHg 64%
    20:00 +18°C° 0 mm 3 m/s 757 mmHg 67%
    21:00 +16°C° 0 mm 2 m/s 757 mmHg 70%
    22:00 +14°C° 0 mm 2 m/s 757 mmHg 73%
    23:00 +14°C° 0 mm 1 m/s 757 mmHg 74%

    29 Junho, Sábado

    Tempo Temperatura Precipitação Vento Pressão Humidade
    00:00 +13°C° 0 mm 1 m/s 757 mmHg 75%
    01:00 +12°C° 0 mm 1 m/s 758 mmHg 76%
    02:00 +12°C° 0 mm 1 m/s 758 mmHg 77%
    03:00 +12°C° 0 mm 1 m/s 758 mmHg 78%
    04:00 +12°C° 0 mm 1 m/s 758 mmHg 78%
    05:00 +14°C° 0 mm 2 m/s 757 mmHg 74%
    06:00 +16°C° 0 mm 2 m/s 757 mmHg 70%
    07:00 +18°C° 0 mm 2 m/s 757 mmHg 65%
    08:00 +19°C° 0 mm 3 m/s 757 mmHg 61%
    09:00 +21°C° 0 mm 3 m/s 757 mmHg 57%
    10:00 +22°C° 0 mm 4 m/s 757 mmHg 53%
    11:00 +23°C° 0 mm 4 m/s 757 mmHg 51%
    12:00 +25°C° 0 mm 4 m/s 757 mmHg 49%
    13:00 +26°C° 0 mm 4 m/s 756 mmHg 47%
    14:00 +26°C° 0 mm 4 m/s 756 mmHg 46%
    15:00 +26°C° 0 mm 4 m/s 756 mmHg 46%
    16:00 +26°C° 0 mm 3 m/s 755 mmHg 46%
    17:00 +25°C° 0 mm 3 m/s 755 mmHg 51%
    18:00 +24°C° 0 mm 2 m/s 755 mmHg 57%
    19:00 +23°C° 0 mm 2 m/s 755 mmHg 62%
    20:00 +21°C° 0 mm 2 m/s 755 mmHg 62%
    21:00 +20°C° 0 mm 2 m/s 755 mmHg 61%
    22:00 +18°C° 0 mm 2 m/s 755 mmHg 61%
    23:00 +18°C° 0 mm 2 m/s 755 mmHg 62%

    30 Junho, Domingo

    Tempo Temperatura Precipitação Vento Pressão Humidade
    00:00 +17°C° 0 mm 2 m/s 755 mmHg 63%
    01:00 +17°C° 0 mm 2 m/s 755 mmHg 63%
    02:00 +16°C° 0 mm 2 m/s 755 mmHg 66%
    03:00 +16°C° 0 mm 2 m/s 754 mmHg 69%
    04:00 +16°C° 0 mm 3 m/s 754 mmHg 72%
    05:00 +18°C° 0 mm 3 m/s 754 mmHg 69%
    06:00 +19°C° 0 mm 3 m/s 754 mmHg 67%
    07:00 +21°C° 0 mm 3 m/s 754 mmHg 65%
    08:00 +24°C° 0 mm 3 m/s 754 mmHg 60%
    09:00 +26°C° 0 mm 4 m/s 754 mmHg 55%
    10:00 +28°C° 0 mm 4 m/s 754 mmHg 49%
    11:00 +29°C° 0 mm 4 m/s 753 mmHg 47%
    12:00 +30°C° 0 mm 4 m/s 753 mmHg 46%
    13:00 +30°C° 0 mm 5 m/s 753 mmHg 44%
    14:00 +32°C° 0 mm 5 m/s 752 mmHg 45%
    15:00 +32°C° 0 mm 5 m/s 752 mmHg 46%
    16:00 +32°C° 0 mm 5 m/s 751 mmHg 47%
    17:00 +29°C° 0 mm 5 m/s 751 mmHg 53%
    18:00 +28°C° 0 mm 5 m/s 751 mmHg 58%
    19:00 +27°C° 0 mm 5 m/s 750 mmHg 63%
    20:00 +26°C° 0 mm 5 m/s 750 mmHg 65%
    21:00 +25°C° 0 mm 5 m/s 750 mmHg 66%
    22:00 +23°C° 0 mm 5 m/s 750 mmHg 68%
    23:00 +22°C° 0 mm 5 m/s 750 mmHg 70%

    1 Julho, Segunda-feira

    Tempo Temperatura Precipitação Vento Pressão Humidade
    00:00 +22°C° 0 mm 4 m/s 750 mmHg 73%
    01:00 +21°C° 0 mm 4 m/s 750 mmHg 75%
    02:00 +20°C° 0 mm 3 m/s 751 mmHg 80%
    03:00 +19°C° 0 mm 3 m/s 751 mmHg 85%
    04:00 +18°C° 0 mm 2 m/s 751 mmHg 89%
    05:00 +19°C° 0 mm 2 m/s 751 mmHg 83%
    06:00 +21°C° 0 mm 3 m/s 751 mmHg 77%
    07:00 +22°C° 0 mm 3 m/s 752 mmHg 70%
    08:00 +22°C° 0 mm 4 m/s 752 mmHg 65%
    09:00 +23°C° 0 mm 4 m/s 752 mmHg 59%
    10:00 +25°C° 0 mm 5 m/s 752 mmHg 53%
    11:00 +26°C° 0 mm 5 m/s 751 mmHg 53%
    12:00 +27°C° 0 mm 5 m/s 751 mmHg 52%
    13:00 +27°C° 0 mm 5 m/s 750 mmHg 52%
    14:00 +27°C° 0 mm 5 m/s 750 mmHg 52%
    15:00 +27°C° 0 mm 4 m/s 749 mmHg 53%
    16:00 +27°C° 0 mm 4 m/s 749 mmHg 53%
    17:00 +26°C° 0 mm 3 m/s 749 mmHg 57%
    18:00 +25°C° 0 mm 2 m/s 749 mmHg 62%
    19:00 +24°C° 0 mm 1 m/s 749 mmHg 66%
    20:00 +23°C° 0 mm 1 m/s 749 mmHg 66%
    21:00 +21°C° 0 mm 2 m/s 749 mmHg 67%
    22:00 +19°C° 0 mm 2 m/s 749 mmHg 68%
    23:00 +18°C° 0 mm 3 m/s 749 mmHg 69%
    Mostrar mais